This is the latest recevied weather packets stored in our database for station/object KI6AOK. If no packets are shown the sender has not sent any weather packets the latest 10 day(s).
| Time | Temp. | Humidity | Pressure | Rain* | Wind** | Luminosity | Snow |
|---|---|---|---|---|---|---|---|
| 1777772883 | 17.78° C | 77% | 1011.1 hPa | 0 mm | - | 50 W/m² | - |
| 1777772581 | 17.78° C | 76% | 1011 hPa | 0 mm | - | 53 W/m² | - |
| 1777772278 | 18.33° C | 76% | 1010.9 hPa | 0 mm | - | 53 W/m² | - |
| 1777771976 | 18.33° C | 75% | 1011 hPa | 0 mm | - | 57 W/m² | - |
| 1777771673 | 18.33° C | 74% | 1010.7 hPa | 0 mm | - | 71 W/m² | - |
| 1777771370 | 18.89° C | 74% | 1010.9 hPa | 0 mm | - | 89 W/m² | - |
| 1777771067 | 18.89° C | 73% | 1010.9 hPa | 0 mm | - | 107 W/m² | - |
| 1777770764 | 19.44° C | 72% | 1010.9 hPa | 0 mm | - | 110 W/m² | - |
| 1777770460 | 19.44° C | 72% | 1010.9 hPa | 0 mm | - | 109 W/m² | - |
| 1777770157 | 19.44° C | 71% | 1010.8 hPa | 0 mm | - | 106 W/m² | - |
| 1777769854 | 20° C | 69% | 1010.9 hPa | 0 mm | - | 102 W/m² | - |
| 1777769551 | 20.56° C | 68% | 1011 hPa | 0 mm | - | 108 W/m² | - |
| 1777769247 | 20.56° C | 68% | 1010.8 hPa | 0 mm | - | 149 W/m² | - |
| 1777768946 | 20.56° C | 67% | 1010.9 hPa | 0 mm | - | 177 W/m² | - |
| 1777768643 | 21.11° C | 66% | 1011.1 hPa | 0 mm | - | 192 W/m² | - |
| 1777768340 | 20.56° C | 66% | 1011 hPa | 0 mm | - | 208 W/m² | - |
| 1777768036 | 21.11° C | 66% | 1010.9 hPa | 0 mm | - | 222 W/m² | - |
| 1777767733 | 20.56° C | 66% | 1011 hPa | 0 mm | - | 237 W/m² | - |
| 1777767429 | 21.11° C | 65% | 1011 hPa | 0 mm | - | 255 W/m² | - |
| 1777767126 | 21.11° C | 65% | 1011 hPa | 0 mm | - | 270 W/m² | - |
| 1777766824 | 21.67° C | 64% | 1011 hPa | 0 mm | - | 287 W/m² | - |
| 1777766521 | 21.67° C | 63% | 1010.9 hPa | 0 mm | - | 303 W/m² | - |
| 1777766218 | 21.11° C | 66% | 1010.8 hPa | 0 mm | - | 316 W/m² | - |
| 1777765916 | 21.11° C | 65% | 1011 hPa | 0 mm | - | 333 W/m² | - |
| 1777765611 | 22.22° C | 62% | 1010.9 hPa | 0 mm | - | 351 W/m² | - |
* Rain latest hour (hover to see other rain measurements)
** Current wind speed in m/s (hover to see current wind gust speed)